Torna al catalogo

CZ-6A DEB

AttivoPO
NORAD 61314·DEBRIS·🇨🇳 China

Lanciato Aug 6, 2024 da Taiyuan Satellite Launch Center

Loading…

Prossimi Passaggi (prossime 24 ore)

TLE

AggiornatoSource: Space-Track

Epoca: Sep 14, 2026, 09:45 UTC

1 61314U 24140UB  26257.40659985  .00004238  00000-0  75599-3 0  9999
2 61314  88.9274 252.3681 0099322 308.3712  50.8610 14.63638784108932

Traccia CZ-6A DEB in tempo reale con AllMySat

Download on the App Store